Tracking 26951 objects as of 3-Feb-2023
HD Live streaming from Space Station
objects crossing your sky now

ONEWEB-0324

Track ONEWEB-0324 now!
10-day predictions
ONEWEB-0324 is classified as:


NORAD ID: 49193
Int'l Code: 2021-083H
Perigee: 1,195.5 km
Apogee: 1,198.2 km
Inclination: 87.9 °
Period: 109.2 minutes
Semi major axis: 7567 km
RCS: Unknown
Launch date: September 14, 2021
Source: United Kingdom (UK)
Launch site: TYURATAM MISSILE AND SPACE COMPLEX (TTMTR)
Your satellite tracking list
Your tracking list is empty




NASA's NSSDC Master Catalog

Two Line Element Set (TLE):
1 49193U 21083H   23034.40531433  .00000034  00000-0  53892-4 0  9993
2 49193  87.9196 219.7929 0001787 105.0314 255.1016 13.18684657 67927
Source of the keplerian elements: AFSPC